GFSSGP_700_spd_237.txt.gz
Wind_Speed
3 4 3 2 2 3 6 4 3 4 8 11 14 15 15 14 8 6 10 13 13 12 10 11 13 12 11 11 12 12 12 12 11 10 9 9 8 7 6 4 4 4 3 1 2 4 5 6 6
3 3 3 1 1 3 4 3 1 5 10 15 18 16 15 16 13 9 7 7 10 12 11 12 14 15 14 13 13 13 13 13 13 11 10 9 8 8 7 5 5 5 4 3 2 2 3 5 6
3 3 1 2 2 3 1 1 4 9 13 16 16 14 13 13 13 9 5 9 12 13 9 12 15 17 17 16 14 14 14 13 12 12 12 10 9 8 7 6 6 6 6 6 3 1 1 2 4
3 2 1 3 4 3 3 3 7 10 13 15 16 12 11 12 11 10 8 8 13 14 10 11 17 19 19 18 15 15 13 13 11 11 9 9 8 8 7 7 7 7 8 7 6 4 3 2 2
2 1 3 4 2 3 2 5 8 12 15 14 12 11 13 12 12 10 8 11 12 14 14 10 15 17 17 17 16 14 12 11 10 10 10 9 8 8 7 6 6 7 8 8 7 6 5 4 4
2 3 5 7 4 5 6 7 9 12 13 13 13 13 12 9 9 9 7 8 11 17 18 15 15 18 18 17 16 14 13 12 11 12 11 10 9 8 7 6 7 8 9 9 9 7 7 6 5
2 4 6 8 7 8 8 7 10 11 11 12 13 14 11 7 8 10 7 10 11 11 13 16 15 8 15 15 15 14 14 14 14 14 13 12 10 9 9 10 9 10 10 11 10 9 8 7 6
3 4 6 7 7 9 9 10 11 12 11 11 12 8 8 9 9 7 8 8 11 12 9 12 12 10 5 10 10 13 14 14 15 15 15 14 13 13 12 13 14 14 13 13 13 12 11 11 10
4 5 7 7 7 8 9 11 13 13 12 12 12 14 13 12 12 11 12 10 11 13 12 15 14 12 13 14 10 11 13 16 17 17 17 17 17 15 15 16 16 18 16 16 16 16 14 13 13
5 7 6 8 9 11 12 13 14 14 12 12 12 12 12 11 12 12 13 14 12 13 13 17 14 14 11 13 10 10 13 15 19 20 21 20 19 18 19 16 16 16 18 18 22 21 17 15 15
6 8 9 9 11 13 14 16 15 15 13 13 13 11 12 10 10 11 12 14 13 13 14 14 19 20 15 11 14 17 18 16 18 21 21 19 19 20 22 17 16 18 16 20 20 22 17 14 16
8 9 10 11 12 14 16 16 16 17 13 15 15 13 12 10 12 13 13 14 15 14 14 14 14 17 15 13 16 14 14 16 12 18 16 21 22 22 19 16 18 19 18 18 18 25 19 17 20
8 8 11 13 14 16 17 16 19 15 17 17 14 15 13 12 12 13 14 15 15 16 15 15 14 13 14 13 17 20 17 16 15 17 19 22 23 20 19 18 21 20 17 16 18 19 22 21 19
11 13 14 15 16 18 18 16 18 12 16 16 15 15 14 12 12 12 12 14 15 16 15 15 16 16 16 16 18 20 20 18 19 19 20 20 19 19 19 18 18 14 12 12 12 11 12 13 14
14 15 13 12 11 13 18 17 12 13 14 14 13 14 14 14 13 11 13 15 15 16 16 15 16 17 18 17 16 18 19 18 18 18 17 16 16 15 14 13 12 11 11 11 11 12 12 13 14
12 11 11 10 16 15 16 22 13 12 14 13 16 17 16 15 15 14 14 15 16 16 16 15 16 17 17 16 15 14 15 15 14 13 13 12 11 11 11 10 11 11 11 12 12 13 14 15 16
10 13 18 15 12 18 19 25 19 20 22 19 18 20 20 18 15 15 14 15 15 15 15 16 16 15 14 13 13 12 12 11 11 10 10 10 11 11 11 11 12 13 13 13 13 14 15 16 17
14 19 18 20 15 21 24 28 24 23 23 25 24 23 23 22 18 16 15 15 15 15 15 15 15 13 13 12 12 12 11 10 10 10 10 11 11 12 12 12 13 13 13 13 13 13 15 16 18
17 18 22 23 25 22 20 25 24 25 27 27 25 24 25 25 21 19 17 17 17 16 15 15 14 14 13 13 13 13 12 12 12 12 12 12 12 13 14 14 13 13 13 13 13 14 16 18 19
19 21 24 21 16 27 28 31 22 19 14 16 19 27 29 26 26 23 18 17 17 17 17 15 16 16 16 16 15 14 13 13 13 13 12 12 12 12 13 14 14 15 16 16 17 18 19 20 22
19 21 20 20 24 24 25 18 3 17 20 19 21 20 18 23 29 23 16 13 14 17 17 15 17 18 18 17 16 16 15 15 14 14 13 12 13 13 15 15 15 16 16 17 19 20 21 20 23
19 16 18 21 23 11 22 8 24 6 12 13 13 17 19 21 22 23 17 12 9 9 15 16 18 20 20 19 18 17 16 16 15 15 14 15 15 15 16 17 17 17 17 18 19 21 22 22 21
14 14 19 21 23 21 12 7 1 8 8 14 18 12 9 9 15 17 11 10 13 13 11 14 18 21 21 20 19 18 17 16 16 15 15 15 16 16 17 18 18 18 19 20 20 21 22 22 23
13 13 21 18 12 3 2 2 9 9 14 16 16 18 13 7 8 13 14 17 18 18 17 13 16 20 22 22 20 19 18 16 16 15 15 16 16 16 17 19 20 20 21 21 22 23 24 24 24
6 13 6 4 2 4 2 8 15 18 19 16 15 13 12 9 9 13 15 14 18 19 19 16 15 20 22 22 21 19 18 16 16 15 16 16 18 19 20 21 22 23 23 24 26 26 27 27 27
13 10 4 5 2 4 15 9 5 8 14 16 18 18 17 14 10 14 18 18 19 18 18 16 15 18 22 22 22 20 18 16 16 15 17 17 18 19 20 22 23 25 26 28 29 30 31 32 33
6 7 6 6 6 4 6 11 16 19 14 12 15 12 11 10 9 11 18 20 20 20 21 18 14 16 21 23 22 20 18 17 16 17 17 18 19 21 23 25 27 29 31 32 34 35 36 36 37
17 11 6 5 1 4 8 12 14 13 10 10 9 10 12 11 9 8 11 19 22 23 22 20 18 16 18 22 22 21 19 18 17 18 18 19 21 24 25 26 27 29 30 32 33 35 37 38 38
16 19 14 9 8 4 3 6 5 4 10 18 23 25 20 16 14 13 10 10 19 23 23 21 21 18 17 20 22 21 20 18 18 19 20 22 24 24 25 27 29 31 33 33 34 36 37 38 37
27 23 20 12 8 12 10 19 18 23 25 18 16 11 11 11 10 10 10 11 14 19 21 22 22 22 19 20 22 22 20 19 18 19 22 25 25 25 27 29 31 32 32 33 33 34 35 36 34

GFSSGP_700_spd_243.txt.gz
Wind_Speed
1 2 2 3 3 3 7 5 5 2 1 5 7 9 10 9 6 5 7 9 12 14 13 11 11 12 13 13 11 11 11 10 9 9 9 9 8 6 4 4 4 1 1 1 1 3 5 6 6
2 2 2 3 3 4 5 6 4 1 4 7 10 12 11 9 7 8 12 16 13 12 13 13 10 13 13 13 13 13 13 12 12 11 11 9 8 6 5 5 4 3 3 2 1 1 4 5 5
3 3 2 2 3 4 6 7 3 3 6 9 10 10 8 9 10 7 5 7 9 13 11 10 10 12 13 12 14 14 15 14 14 12 10 9 8 6 6 5 5 5 4 4 3 3 2 2 3
2 2 2 2 3 4 5 5 4 4 8 10 10 8 9 9 7 6 5 5 11 14 15 12 13 14 15 12 13 13 15 15 15 13 10 9 9 8 7 6 6 5 6 6 6 5 4 3 2
2 3 1 1 2 3 4 4 4 5 8 9 10 10 9 9 7 6 5 6 11 13 10 14 15 15 15 14 16 16 15 15 14 14 12 10 9 9 8 7 6 7 7 7 8 7 6 4 3
2 2 2 1 2 3 4 5 5 6 9 10 10 10 9 9 7 6 6 6 7 9 9 12 14 21 24 12 16 18 17 16 16 15 14 12 10 10 10 8 8 8 8 8 9 9 8 7 5
2 2 2 2 3 4 6 7 8 9 11 12 11 11 7 7 8 6 6 6 6 7 8 8 10 11 11 23 23 14 19 17 17 13 14 13 13 12 11 10 9 10 10 10 10 10 10 9 9
3 3 3 2 3 4 6 8 10 11 12 12 10 8 12 11 11 9 8 8 6 6 6 6 7 1 4 13 18 8 12 17 17 13 14 13 13 13 13 12 11 12 11 11 12 11 11 12 12
5 4 4 4 4 5 7 8 11 13 13 12 10 10 11 11 11 11 10 10 9 9 9 8 7 4 4 5 6 11 19 22 20 15 15 15 15 15 13 13 14 13 12 12 13 13 13 14 15
7 7 7 7 8 9 10 12 14 16 16 13 12 12 12 12 11 11 11 11 12 10 10 8 5 5 6 7 10 9 3 9 14 12 12 16 15 15 15 16 16 14 13 14 15 16 17 17 17
7 7 8 7 9 11 13 14 15 17 14 14 14 13 13 13 12 12 12 13 13 11 10 11 5 8 8 9 9 10 9 9 10 14 16 16 18 17 18 18 17 16 16 17 16 15 17 18 19
7 7 8 10 12 14 15 17 17 17 14 16 14 14 14 14 14 14 14 14 14 14 12 11 10 8 9 11 12 11 13 14 15 17 19 19 21 21 20 19 18 15 16 17 15 18 20 18 18
4 8 12 12 13 13 15 14 17 13 13 14 12 13 14 15 15 14 14 14 14 14 14 12 11 11 9 10 13 16 17 15 17 18 17 18 17 19 14 16 22 19 15 17 18 20 18 17 17
11 13 11 10 11 15 18 16 12 13 12 14 14 13 14 15 15 14 13 15 16 17 16 14 14 13 12 12 13 13 16 18 20 19 17 15 17 19 18 19 23 17 17 17 16 15 14 13 13
11 9 6 11 12 18 17 15 15 11 14 11 14 14 16 16 16 13 15 16 16 15 16 16 15 13 13 13 14 16 16 17 19 19 18 17 17 18 18 17 17 15 14 13 12 12 12 11 11
10 9 12 14 12 15 16 19 14 18 15 19 20 20 19 17 17 17 15 17 16 16 16 17 16 15 14 15 15 17 17 17 17 17 17 16 16 15 15 14 14 12 13 12 12 12 11 12 12
12 12 16 14 18 16 21 21 17 22 20 20 21 20 18 21 20 17 18 18 17 18 17 17 17 16 15 16 16 17 17 16 15 14 13 13 12 12 12 10 11 11 11 11 12 12 12 12 12
14 17 18 19 18 21 18 21 17 22 26 23 20 22 22 21 21 21 21 21 19 18 18 17 17 16 16 15 15 14 14 12 11 10 10 10 10 9 10 10 10 10 11 11 11 11 11 10 10
17 17 19 22 20 20 22 23 18 21 13 18 20 17 15 15 20 25 25 24 22 20 18 17 17 15 15 14 12 12 12 11 10 10 9 9 9 9 10 11 11 10 11 11 11 11 10 10 11
18 19 21 13 21 25 26 25 16 7 13 21 12 12 11 12 15 18 26 26 22 19 18 17 15 14 14 13 12 12 11 11 10 10 10 9 10 10 9 10 10 10 11 11 11 11 11 12 12
18 19 19 21 25 24 23 21 7 12 18 10 11 16 18 18 13 15 17 23 19 16 14 14 15 14 13 13 14 13 12 12 12 11 11 10 10 10 10 10 10 11 11 12 12 13 14 15 15
19 20 21 21 23 14 24 9 18 15 6 7 13 17 14 12 13 13 16 18 17 13 12 12 13 13 13 14 15 15 14 13 13 12 12 12 12 11 12 12 12 12 13 13 14 15 15 17 17
24 20 21 21 23 22 13 6 2 6 7 10 14 12 13 15 13 11 11 14 16 13 11 10 9 12 13 15 16 16 15 15 15 14 14 13 13 13 13 13 14 14 16 17 18 19 19 20 20
19 16 17 18 13 4 3 3 4 5 10 14 9 13 11 12 10 8 6 11 17 16 15 13 10 10 12 15 17 17 17 16 16 16 15 15 14 14 14 14 15 17 18 20 21 22 23 24 24
10 9 7 4 1 4 3 8 12 20 17 9 10 7 8 11 11 7 6 10 15 16 17 17 14 13 12 15 17 18 18 16 16 17 16 15 15 15 15 16 16 18 19 20 23 24 25 26 28
9 7 3 5 3 4 6 11 6 9 11 11 8 4 9 9 9 10 9 12 16 18 19 20 19 16 14 15 17 18 19 18 19 18 18 16 16 16 16 16 17 18 20 21 23 26 27 27 28
8 9 8 8 11 5 9 12 13 19 19 9 5 3 9 11 13 13 12 13 17 19 21 22 21 21 17 17 17 18 19 20 20 19 19 18 18 18 17 17 18 20 20 21 23 23 26 28 29
17 11 6 6 3 5 6 10 13 14 15 9 6 6 17 15 19 16 13 13 14 14 20 24 24 24 22 20 19 18 19 21 21 21 20 20 20 19 20 19 20 21 22 22 24 26 27 28 31
19 20 14 11 11 4 2 8 8 8 6 7 12 23 15 20 22 19 21 21 20 16 15 22 26 26 24 23 22 21 21 21 23 22 22 21 21 21 21 21 22 23 23 24 26 27 28 29 29
25 28 24 17 8 13 11 25 27 26 26 24 17 20 24 20 24 31 31 30 18 20 21 18 25 26 27 27 27 26 25 24 24 23 23 22 21 22 23 23 25 24 23 25 27 28 28 29 29

GFSSGP_700_spd_249.txt.gz
Wind_Speed
2 1 1 3 1 2 1 2 3 2 1 3 5 2 4 5 5 6 8 10 12 10 12 12 8 10 13 14 13 12 10 10 9 8 7 7 7 6 5 4 4 1 1 2 3 4 5 6 5
2 2 1 1 2 7 5 3 3 2 2 5 6 6 3 3 5 10 14 14 14 16 14 13 8 10 13 15 15 14 12 10 9 8 8 7 7 7 7 5 4 3 1 1 1 2 3 4 5
3 2 1 1 3 5 2 4 4 3 5 6 5 8 3 4 9 10 10 9 9 9 10 8 9 9 11 16 17 16 14 13 12 11 10 10 10 10 8 6 5 5 3 3 1 1 2 3 3
2 1 1 2 1 1 3 4 4 4 6 6 5 2 9 7 8 8 9 9 7 7 6 10 10 10 12 16 10 15 13 15 13 13 12 10 11 11 9 7 7 6 5 4 4 3 3 4 4
1 2 1 2 1 1 4 5 4 2 3 3 6 3 7 8 7 6 7 8 8 7 9 9 10 11 10 13 13 12 12 22 20 17 16 13 12 13 8 8 8 7 6 6 6 5 5 4 4
3 3 1 2 3 3 4 3 3 2 5 7 6 4 8 6 5 6 7 8 8 8 8 9 10 11 11 13 16 14 15 19 22 22 19 16 15 13 9 10 9 9 9 8 7 7 6 6 5
3 2 3 4 6 4 4 3 3 5 6 4 7 1 12 7 8 7 7 7 8 8 9 10 9 10 12 15 16 19 21 22 28 26 24 21 18 15 14 12 12 11 11 10 9 8 8 7 7
3 4 2 3 3 5 4 4 5 4 6 9 8 1 5 9 9 7 6 7 9 9 9 10 10 12 14 16 19 19 21 27 27 24 24 24 27 24 16 15 13 13 12 12 12 11 10 10 9
3 3 1 1 1 6 5 4 6 7 9 9 11 9 12 12 10 8 7 7 7 9 11 12 12 12 14 16 17 14 9 11 22 17 26 27 28 24 20 17 15 14 14 13 13 13 12 12 11
2 3 2 1 3 4 6 5 8 9 8 9 10 11 11 12 11 9 8 8 8 9 10 11 12 12 14 15 15 13 8 6 13 18 17 20 21 20 23 19 17 16 15 15 15 14 14 15 15
3 3 1 2 5 6 6 7 8 9 7 9 10 13 12 13 13 12 10 9 8 9 11 12 12 12 14 16 15 15 12 8 7 17 19 18 20 30 23 21 17 16 16 16 16 16 17 16 16
3 1 5 7 8 8 7 7 9 11 10 9 10 11 13 13 14 14 13 11 9 11 13 13 13 13 14 15 16 15 14 11 10 12 13 14 13 12 15 14 18 21 18 17 18 19 19 19 18
3 7 9 8 10 9 11 13 12 6 8 10 11 13 13 13 15 14 13 14 13 13 12 13 14 15 15 16 17 17 16 17 15 17 17 17 19 20 20 23 22 22 21 20 20 20 19 19 21
7 9 8 12 11 15 12 14 7 9 8 13 15 13 14 15 15 15 14 15 15 15 14 14 14 15 16 17 17 17 18 18 18 20 22 21 20 20 22 23 25 23 21 22 20 20 20 24 23
10 10 9 10 14 15 15 8 8 10 13 14 17 17 19 19 18 17 19 17 17 17 16 15 16 16 17 18 18 18 19 20 21 23 25 25 26 25 23 21 23 24 23 22 21 23 22 22 18
8 6 6 14 10 14 16 7 14 15 18 17 18 21 23 21 22 22 22 20 19 19 19 17 18 18 18 18 18 19 19 20 21 22 22 22 23 22 21 21 21 20 20 21 20 19 18 18 17
6 7 10 11 13 15 13 14 11 21 21 21 20 15 14 17 19 22 23 23 22 22 21 20 20 19 18 18 19 19 20 20 21 21 21 21 21 21 20 20 20 20 19 18 18 17 17 16 16
8 10 10 11 17 11 17 17 14 18 25 20 12 14 16 14 15 18 21 22 24 25 23 21 20 19 19 18 18 19 20 20 20 20 20 19 18 18 18 18 18 17 16 16 16 16 16 16 16
13 14 15 13 20 23 23 24 14 20 17 15 12 15 12 12 12 13 16 20 23 25 25 23 21 20 19 18 18 19 19 19 18 16 16 16 15 14 13 13 14 14 15 15 14 14 15 15 14
16 15 13 16 22 25 27 29 13 8 12 13 15 14 12 15 16 15 16 19 21 24 25 24 23 19 18 19 19 18 17 16 15 14 14 14 14 13 13 13 13 13 13 13 13 13 12 12 14
16 14 13 20 24 24 22 17 9 12 13 15 16 14 13 17 13 13 14 17 19 22 23 23 21 19 19 18 18 17 16 16 15 15 14 13 13 13 13 13 13 12 13 12 12 13 12 12 13
17 17 22 21 19 9 20 9 11 14 12 15 15 15 15 15 16 17 16 16 16 19 22 23 21 19 18 18 18 17 17 17 16 16 15 15 14 15 14 15 14 14 14 13 13 13 14 14 14
17 18 19 21 18 18 10 6 5 9 10 12 14 16 17 16 16 16 16 14 14 16 19 22 21 18 17 17 18 17 18 18 18 17 17 17 16 16 15 15 14 15 15 15 15 15 16 18 18
18 17 17 15 9 5 7 5 6 9 10 16 16 16 16 14 13 14 14 14 13 13 18 21 20 18 16 16 17 19 20 20 19 19 18 19 17 18 17 15 16 15 16 16 17 17 18 19 20
12 7 4 3 3 3 5 7 17 15 14 17 19 20 16 13 13 11 12 12 12 11 14 20 20 21 20 18 18 19 21 21 21 20 20 20 19 20 18 17 17 16 16 17 17 17 17 19 20
10 10 5 5 4 6 9 10 7 4 9 15 21 18 16 16 13 9 11 13 14 13 14 20 24 26 25 23 21 21 22 22 23 22 22 21 21 20 19 19 18 17 17 17 18 18 18 19 20
10 14 14 9 13 7 12 15 16 18 18 16 18 20 18 18 16 15 14 15 17 19 20 19 23 29 30 29 27 25 25 24 24 24 23 23 21 21 20 21 19 19 18 19 18 19 19 21 22
20 14 5 7 4 7 10 19 19 11 14 10 13 17 19 18 17 17 19 28 30 27 23 26 26 26 30 34 32 30 28 26 25 25 25 25 23 21 22 22 21 20 20 20 20 21 21 24 25
26 28 18 15 11 4 8 8 12 10 8 10 15 16 18 20 21 24 27 30 32 33 28 28 27 29 28 30 36 34 31 29 27 26 26 26 25 24 25 24 23 24 27 24 23 24 25 27 27
25 24 24 18 12 17 17 25 24 20 18 16 18 23 25 28 28 26 33 38 38 37 34 31 27 27 27 27 33 36 34 32 30 29 29 29 29 27 26 28 29 24 24 26 29 25 26 28 28

GFSSGP_700_spd_255.txt.gz
Wind_Speed
3 5 3 6 4 5 6 6 5 6 1 2 3 5 6 4 2 4 7 10 13 13 10 12 12 11 8 9 11 10 10 9 8 7 6 8 7 6 5 3 3 2 0 1 3 4 6 7 6
3 3 4 7 7 2 5 5 8 5 5 6 4 3 6 7 7 4 5 6 7 7 7 8 8 5 5 8 9 10 10 11 10 9 9 7 9 9 7 6 5 3 2 1 2 2 3 4 5
4 5 6 3 6 6 6 6 7 3 3 4 5 2 5 6 8 8 6 5 7 7 7 6 4 3 5 5 5 7 11 12 10 12 13 11 9 6 8 6 5 5 4 3 2 1 1 1 2
5 8 9 6 7 5 6 6 5 3 2 2 4 2 3 6 6 6 6 6 6 6 8 7 4 4 4 6 6 7 12 11 10 15 16 16 13 11 8 6 5 6 6 5 4 3 2 1 0
7 9 6 5 1 5 4 3 3 3 4 2 4 5 4 4 6 6 8 8 7 6 7 7 6 5 6 7 7 6 6 12 14 16 19 17 16 13 12 11 12 7 9 7 6 4 3 2 2
7 8 5 3 4 1 2 2 1 3 5 5 3 7 5 4 7 8 9 9 10 7 8 7 8 7 6 7 8 8 7 10 11 15 21 21 19 17 14 13 17 14 10 11 8 6 5 4 3
5 9 9 5 1 2 3 3 4 3 6 8 5 9 9 7 6 7 9 10 10 10 8 9 9 8 8 9 9 10 10 10 13 18 22 22 21 19 19 16 17 22 15 14 11 8 6 5 5
7 6 8 5 2 1 4 7 5 6 9 8 9 10 8 6 9 10 11 10 10 11 9 11 10 9 10 11 10 11 11 11 12 15 20 21 18 18 19 23 21 25 19 15 15 11 9 7 7
7 5 6 3 5 5 6 8 6 6 7 8 8 10 11 12 12 11 12 12 10 11 11 11 12 12 12 13 13 13 12 12 13 14 12 18 20 22 22 25 25 30 26 17 18 14 12 10 10
4 4 1 2 4 6 7 6 8 6 8 10 11 8 6 8 11 11 12 13 12 12 11 10 11 13 13 13 14 15 13 12 12 12 7 18 21 19 22 24 24 25 27 24 22 21 20 13 12
3 4 4 3 3 5 7 7 7 8 9 10 10 11 9 8 11 11 12 12 13 13 11 10 12 13 13 14 14 14 14 14 12 11 8 16 19 21 20 28 24 22 21 24 22 23 21 19 17
5 2 2 2 6 8 8 9 10 11 8 9 9 12 12 10 10 11 12 13 12 14 13 13 13 14 14 14 16 15 15 14 15 12 9 9 13 16 16 19 16 19 23 23 26 28 25 20 18
5 1 2 4 8 9 8 9 9 8 6 7 8 9 12 14 9 10 12 13 12 13 13 14 15 15 15 16 16 17 15 16 16 16 15 14 14 17 16 14 15 20 24 23 21 22 20 17 19
4 2 4 6 5 6 7 9 3 4 5 7 10 12 13 13 14 13 13 15 13 14 13 16 15 17 17 16 17 18 18 17 18 17 17 19 20 18 17 18 19 19 21 25 25 26 22 22 21
3 3 4 5 7 6 8 4 5 5 8 10 15 15 15 14 15 16 17 16 17 14 13 15 16 17 17 17 18 18 18 18 18 19 19 19 21 23 23 21 21 22 23 26 27 24 23 23 22
4 5 4 5 7 9 8 6 9 12 14 15 15 18 18 15 9 12 18 18 17 15 13 15 16 17 17 18 19 20 20 19 19 20 22 22 22 22 23 24 24 24 26 25 24 24 24 25 26
7 5 7 9 8 11 11 11 11 17 20 18 14 14 14 12 11 10 12 15 14 14 12 13 16 17 18 19 19 20 20 22 22 21 22 24 25 24 24 24 25 25 23 22 20 22 23 23 24
7 8 9 10 11 13 15 17 12 15 23 22 17 15 11 12 12 11 12 17 17 14 11 13 16 18 19 19 19 19 20 21 23 23 24 24 26 25 23 22 23 23 23 22 21 21 22 21 22
7 9 13 12 15 18 16 22 13 18 23 17 14 14 10 11 11 12 14 18 17 15 11 12 16 18 19 19 19 19 19 20 22 24 24 24 25 24 21 19 19 19 19 19 18 19 20 20 19
10 13 13 14 13 18 19 21 17 8 8 10 12 13 13 12 11 13 17 17 15 16 14 13 17 18 19 21 19 18 19 20 22 23 23 23 22 20 18 16 16 16 16 16 16 17 17 17 18
13 15 14 15 18 21 20 22 10 10 12 10 11 14 14 13 13 14 17 18 16 16 17 15 17 19 20 20 19 18 18 20 21 21 21 22 20 18 17 16 15 15 15 15 15 15 14 15 14
15 11 12 14 16 9 16 10 26 19 14 10 13 13 17 16 15 16 19 18 15 15 17 18 17 18 19 19 19 19 19 20 20 20 20 19 19 18 18 17 16 15 15 15 14 14 13 13 13
12 16 14 16 17 20 19 9 11 10 12 13 15 14 19 20 18 18 19 15 14 15 17 18 17 17 18 19 20 20 20 20 19 20 21 19 19 20 19 19 18 17 15 15 15 15 14 13 14
16 17 17 16 11 5 10 10 8 13 11 13 18 17 18 22 21 20 20 15 15 16 16 17 17 16 16 18 20 21 22 21 20 21 22 21 21 21 21 21 19 18 18 16 16 16 16 16 16
19 13 5 3 2 5 5 10 22 22 23 17 18 19 20 22 22 22 17 15 16 14 16 14 17 18 18 19 22 24 25 25 23 23 23 23 24 23 23 22 21 21 20 19 18 17 16 16 17
13 18 8 6 3 4 7 12 16 17 16 18 20 17 21 23 23 20 16 17 16 17 17 18 26 22 23 23 25 28 30 30 27 27 26 26 26 26 24 24 23 22 22 21 20 18 17 18 17
14 21 18 12 14 5 11 19 24 22 20 19 20 21 20 22 20 16 17 18 19 21 22 27 26 29 29 26 27 30 31 32 33 31 29 29 28 27 26 25 24 23 22 22 22 20 19 18 19
26 17 9 11 3 6 9 18 23 19 18 18 19 17 19 20 16 15 16 20 22 24 27 28 28 36 34 36 31 31 31 32 32 34 33 32 31 29 28 27 26 25 23 24 22 22 21 20 19
29 29 22 19 15 5 4 11 13 10 13 15 14 18 19 17 15 15 20 24 26 31 34 34 36 35 36 35 34 33 30 28 30 32 34 35 33 34 32 31 30 28 26 26 25 25 24 23 27
30 34 32 24 12 20 17 32 24 21 17 19 18 17 20 20 18 22 23 25 30 34 36 38 38 38 38 32 28 27 26 24 26 28 32 37 35 41 42 32 30 31 28 27 26 25 27 27 27

GFSSGP_700_spd_258.txt.gz
Wind_Speed
6 7 8 7 4 4 6 3 3 2 0 1 3 3 3 4 4 4 7 10 9 5 4 4 6 6 6 7 9 9 8 7 7 8 9 8 6 5 5 4 4 3 2 1 1 2 3 4 3
7 7 9 5 3 8 3 3 4 3 3 3 6 6 3 2 2 4 7 7 4 4 4 5 4 3 3 5 7 8 10 10 9 8 9 9 8 7 6 5 5 4 4 3 3 2 1 1 1
8 8 9 5 5 6 4 4 5 5 4 4 3 5 5 5 4 5 6 5 6 5 6 4 2 3 3 4 5 7 8 10 11 10 10 11 11 7 8 7 6 5 5 5 5 4 3 2 2
8 10 7 5 6 3 2 3 2 3 3 3 2 3 4 4 6 6 6 6 7 9 9 5 3 3 3 4 5 6 9 11 11 11 12 11 10 9 9 8 8 6 5 4 6 6 5 4 3
8 9 5 7 5 5 2 1 2 3 1 3 4 2 4 5 6 5 7 7 6 8 8 8 5 4 4 5 6 7 8 9 13 14 15 15 14 12 11 11 11 8 6 6 6 9 8 6 5
7 7 7 7 6 3 3 4 5 4 4 2 5 5 3 5 6 7 7 8 7 7 8 8 7 6 6 6 6 8 9 8 10 13 15 15 15 16 15 15 14 14 12 8 7 9 11 10 7
6 9 9 8 5 2 4 1 4 6 5 4 7 8 4 5 6 6 8 9 11 7 8 9 7 7 7 7 8 9 11 10 11 12 15 19 21 20 19 17 17 17 16 17 16 10 11 12 10
7 7 9 5 4 2 3 4 6 8 8 7 8 6 6 8 9 9 9 10 11 9 9 9 8 8 9 9 9 10 10 10 11 11 14 18 19 14 16 17 19 21 20 28 33 17 14 13 12
5 5 8 3 2 2 3 5 5 8 8 8 11 11 9 9 9 10 10 10 10 12 10 9 9 9 10 10 11 10 10 11 12 12 14 12 11 15 16 18 22 23 24 30 34 23 14 14 15
5 4 4 3 2 1 3 6 6 8 9 10 9 8 6 7 9 10 11 11 11 11 9 10 11 9 9 10 10 10 11 11 11 12 12 12 12 13 14 18 19 20 26 21 26 28 13 16 18
7 5 4 3 2 3 6 7 8 8 10 11 9 7 7 6 9 10 10 10 12 11 9 10 11 11 10 10 11 11 12 12 12 12 11 11 9 15 18 19 20 23 26 18 17 22 24 24 25
9 8 5 3 4 6 7 10 11 10 10 9 8 9 7 8 9 11 10 10 11 12 10 11 11 11 12 11 10 11 11 12 12 12 12 11 10 14 18 19 17 18 17 17 20 19 19 23 22
9 7 6 5 6 8 8 8 8 8 7 8 8 9 10 9 9 11 13 12 11 12 12 11 11 11 12 12 12 11 12 13 14 14 14 15 14 15 17 19 19 16 17 19 22 26 27 26 31
8 7 7 7 8 8 7 9 6 6 6 7 8 9 10 11 12 13 14 14 13 12 13 12 12 13 13 13 13 12 13 13 14 15 15 16 17 18 21 21 22 20 21 19 21 24 25 24 23
9 8 9 9 8 8 7 8 6 8 9 10 12 14 12 12 13 15 14 12 12 13 14 14 13 13 12 13 14 14 14 13 14 16 16 17 19 19 21 22 23 25 27 27 26 26 28 28 27
10 10 10 9 10 10 8 7 7 10 12 13 14 13 12 12 10 10 14 12 8 11 13 16 14 14 13 14 14 14 15 15 16 17 18 19 20 21 21 21 23 25 25 27 29 31 31 32 27
12 9 11 11 11 12 11 9 10 13 17 16 14 13 13 11 9 11 11 11 10 11 12 15 15 14 14 15 16 16 16 15 15 17 19 20 21 21 22 23 23 25 26 26 26 26 26 25 24
10 13 11 11 11 14 17 19 15 18 19 19 16 14 12 13 10 10 10 10 13 12 11 14 16 15 15 16 17 18 18 17 17 18 19 21 21 21 22 23 24 24 25 25 24 24 24 23 23
10 11 13 13 18 21 19 23 15 16 22 19 15 13 12 14 10 11 12 11 13 12 10 12 15 17 16 16 18 18 18 19 18 18 20 21 21 21 21 21 20 20 21 22 22 22 22 21 21
12 12 15 17 14 18 19 22 16 18 19 13 14 15 13 14 12 13 13 13 13 12 12 13 16 18 18 18 19 19 19 20 20 19 19 20 21 21 20 19 18 17 17 18 19 19 19 19 20
14 15 16 18 19 21 22 23 14 10 13 18 15 14 14 15 14 13 13 14 15 13 11 13 16 18 19 19 19 20 20 19 20 20 20 21 20 20 19 18 16 16 16 17 17 18 18 17 18
17 16 14 18 15 8 16 11 29 22 16 15 13 12 15 13 17 16 15 15 16 13 12 14 16 17 18 18 19 20 20 19 20 20 20 20 20 20 20 19 17 17 17 17 17 16 16 16 15
17 15 15 16 18 19 22 9 21 15 9 6 10 14 15 16 18 21 17 16 16 13 13 15 15 16 18 19 20 20 20 20 20 20 20 20 21 21 21 20 20 19 18 18 18 17 17 16 15
19 17 19 20 17 5 20 15 9 10 12 19 15 15 17 19 20 22 21 19 18 15 15 15 16 17 17 19 21 21 22 23 22 22 22 22 22 22 22 22 22 21 20 19 19 18 18 17 17
22 17 6 4 2 6 8 12 20 21 28 17 18 19 18 21 23 23 23 21 19 16 15 16 15 17 22 26 21 23 26 28 27 27 26 24 24 24 24 24 23 23 22 21 20 20 19 19 18
19 22 10 8 4 5 10 12 20 23 25 21 21 21 22 23 24 24 23 22 19 16 16 16 16 23 26 28 26 29 31 31 30 30 30 28 27 27 27 26 25 24 24 23 22 21 21 21 20
22 26 24 17 15 7 14 26 32 28 23 19 22 20 21 23 24 23 23 21 19 18 18 20 23 25 30 30 31 32 34 33 33 32 32 32 31 29 29 29 28 27 25 24 24 23 23 22 20
32 20 10 13 3 6 8 15 21 27 22 19 20 21 23 24 24 24 23 22 21 21 22 24 25 30 33 32 33 35 38 37 34 31 31 32 32 32 31 32 31 29 32 27 27 24 24 24 21
34 32 22 20 16 5 4 12 16 17 16 18 18 20 23 24 24 23 22 21 22 23 26 29 32 35 33 36 38 39 35 35 30 28 28 30 31 32 35 35 35 33 35 31 31 29 28 27 26
35 35 34 26 14 20 18 45 31 31 31 26 21 24 24 25 24 25 25 25 26 29 27 31 34 34 34 39 42 33 28 28 27 25 25 27 28 31 35 36 37 41 44 40 36 36 27 28 25

GFSSGP_700_spd_261.txt.gz
Wind_Speed
8 9 10 9 3 3 7 6 4 0 1 1 2 4 5 8 8 4 4 8 6 5 3 2 2 5 6 7 7 8 8 7 6 6 6 5 4 4 3 4 5 3 2 2 2 2 2 2 2
8 8 10 7 3 6 4 5 2 2 4 3 2 2 3 4 5 6 5 4 4 3 4 4 3 3 3 4 5 5 7 7 7 7 7 5 4 4 5 5 5 6 4 3 3 3 4 3 2
8 9 8 5 3 5 4 5 1 3 3 4 5 3 1 3 4 5 5 4 3 5 6 6 3 2 4 2 3 5 6 7 9 9 9 8 6 5 6 6 6 5 6 6 5 4 5 6 6
8 9 6 3 5 3 3 2 2 3 3 2 4 5 4 4 4 5 5 6 7 7 7 7 5 4 3 3 3 3 5 8 10 10 10 10 9 9 8 9 5 6 6 6 7 7 6 7 9
8 9 4 6 4 4 3 3 3 3 4 4 4 4 5 5 5 5 6 5 7 8 9 8 7 5 4 4 4 4 6 8 8 10 11 14 13 12 10 11 9 8 6 6 7 7 9 8 9
8 8 6 5 5 3 3 3 3 3 4 4 5 5 5 5 5 6 6 5 5 7 8 9 9 7 6 6 4 6 8 9 8 10 11 12 14 14 14 13 13 14 15 12 7 7 11 16 11
6 7 7 7 5 2 2 1 4 5 5 6 7 7 5 4 6 6 7 7 5 7 7 8 9 8 7 7 6 7 9 9 10 11 11 12 14 19 20 18 15 16 18 14 8 17 17 22 18
7 7 7 6 3 2 4 4 4 6 7 8 9 5 7 8 9 9 8 8 6 6 7 7 8 9 8 8 8 8 9 10 10 11 11 13 16 15 13 15 15 16 20 22 22 18 26 27 31
7 7 7 6 5 4 4 5 6 7 8 9 9 10 10 9 7 8 7 8 6 6 7 8 8 9 8 8 9 9 9 9 10 11 12 12 13 8 9 13 15 16 21 23 23 25 27 28 27
9 8 6 5 4 4 5 6 7 8 9 10 9 9 9 8 7 6 8 7 6 5 6 7 7 7 7 7 8 8 9 10 10 10 11 12 12 9 9 11 15 16 19 25 23 24 25 27 18
9 9 8 7 7 6 7 8 9 9 10 10 9 9 9 9 9 8 9 7 8 7 6 9 8 8 7 7 8 8 9 9 10 11 11 11 11 10 12 15 16 18 23 20 17 18 15 22 29
9 10 11 9 8 8 8 9 10 10 11 10 10 9 9 9 9 9 10 10 10 10 8 8 10 8 8 8 8 8 8 9 9 10 12 12 12 12 12 15 19 22 19 20 19 16 13 14 19
11 11 10 9 9 9 9 9 10 9 11 10 9 9 8 9 9 10 10 11 11 12 11 10 11 11 10 9 8 9 9 9 10 11 12 12 14 14 15 16 18 18 21 19 19 20 20 23 25
11 11 11 11 11 11 11 11 10 8 9 10 10 9 9 10 11 11 11 13 12 12 13 12 13 12 12 11 10 10 10 10 10 11 13 14 14 15 17 18 21 22 21 22 22 22 21 24 24
13 12 12 12 12 13 13 13 11 11 11 11 12 11 12 12 11 14 14 11 12 12 12 14 14 13 14 13 13 12 11 11 11 12 14 15 16 17 18 19 20 22 23 24 25 26 27 27 28
12 13 13 11 13 13 13 9 11 12 13 13 13 14 14 12 12 14 12 11 8 9 11 13 14 14 15 15 14 14 13 13 13 14 16 17 18 19 19 19 20 21 23 24 24 26 27 29 30
12 10 10 12 12 15 15 11 11 14 16 18 17 17 16 14 12 13 13 12 10 10 12 13 14 14 14 16 16 15 14 14 14 16 18 18 19 20 20 21 21 22 23 24 25 26 26 27 27
7 10 14 11 12 15 19 21 19 21 25 21 23 20 18 16 16 15 15 13 10 11 13 13 14 14 15 16 17 18 16 16 16 17 19 19 20 21 21 22 22 22 22 23 24 25 25 26 26
16 12 13 13 17 23 22 25 19 17 27 25 24 22 20 17 18 15 12 10 11 11 12 11 13 14 15 17 19 19 18 18 18 18 19 20 20 20 20 21 21 21 20 21 22 23 23 23 24
18 16 16 17 16 21 23 27 21 19 20 24 25 18 17 18 18 15 11 11 12 12 13 13 14 14 15 17 18 19 19 19 19 20 20 21 21 21 21 20 20 19 19 19 20 21 20 20 22
19 19 16 18 18 21 24 25 20 14 15 17 18 20 16 15 14 18 14 14 12 13 13 13 12 13 15 16 17 18 19 20 21 21 21 22 21 21 20 20 19 19 18 19 19 19 19 19 19
22 20 19 19 17 9 15 9 29 23 19 16 15 13 9 16 16 19 21 17 15 14 13 12 12 14 14 14 16 18 20 21 23 23 23 22 21 21 21 20 20 19 19 19 19 19 19 18 18
22 20 18 18 20 22 28 11 28 30 27 12 10 11 15 15 23 21 22 22 19 15 14 13 14 14 14 15 17 19 21 23 24 24 25 25 24 23 23 22 22 21 21 21 20 20 20 19 18
25 21 17 20 23 6 30 21 9 22 12 11 15 22 16 19 22 23 22 23 23 18 17 17 15 15 15 15 19 23 27 24 23 25 27 28 27 26 26 25 24 23 23 23 22 21 21 20 19
22 19 4 4 3 7 11 12 22 13 19 26 24 22 23 23 24 25 23 24 24 22 22 21 18 17 16 18 21 24 27 27 25 27 29 31 31 29 29 28 28 26 25 24 23 22 22 22 20
24 27 13 8 4 5 10 14 26 16 20 31 28 25 25 25 25 26 26 24 24 23 24 23 20 20 20 23 25 26 27 29 29 31 33 35 34 32 32 31 31 29 27 27 26 24 23 23 22
24 29 26 26 16 9 15 31 38 32 29 26 21 22 23 24 24 26 27 26 25 26 25 25 23 23 24 29 29 30 29 33 34 37 38 34 34 34 34 33 32 31 30 29 28 27 25 24 23
32 22 12 13 3 8 10 19 20 9 13 21 18 20 22 24 27 29 30 28 28 28 29 28 25 25 29 31 34 31 31 34 36 39 37 35 32 33 34 34 35 33 32 31 31 30 27 28 25
31 32 22 21 18 5 13 13 8 7 10 14 18 18 21 25 27 30 29 29 30 31 31 28 27 29 31 34 36 33 35 39 38 33 32 29 28 29 31 32 35 37 32 33 34 36 36 37 27
33 38 39 30 15 17 15 45 27 25 30 33 27 18 21 25 28 31 33 34 33 31 27 25 31 31 32 36 36 35 40 37 31 29 30 30 28 28 28 28 32 32 38 38 39 39 39 37 42